This is the latest recevied weather packets stored in our database for station/object VR2R-13. If no packets are shown the sender has not sent any weather packets the latest 1 day(s).
| Time | Temp. | Humidity | Pressure | Rain* | Wind** | Luminosity | Snow |
|---|---|---|---|---|---|---|---|
| 1777996664 | 16.11° C | 98% | 914 hPa | 0 mm | 1.34 m/s, 60° | - | - |
| 1777996425 | 16.11° C | 97% | 914.1 hPa | 0 mm | 0 m/s | - | - |
| 1777996364 | 16.11° C | 97% | 914.1 hPa | 0 mm | 3.13 m/s, 76° | - | - |
| 1777996065 | 16.11° C | 97% | 914.1 hPa | 0 mm | 1.79 m/s, 71° | - | - |
| 1777996064 | 16.11° C | 97% | 914.1 hPa | 0 mm | 1.79 m/s, 73° | - | - |
| 1777995764 | 16.11° C | 97% | 914.1 hPa | 0 mm | 2.24 m/s, 61° | - | - |
| 1777995705 | 16.11° C | 97% | 914.2 hPa | 0 mm | 0.45 m/s, 73° | - | - |
| 1777995463 | 16.11° C | 97% | 914.2 hPa | 0 mm | 3.58 m/s, 70° | - | - |
| 1777995345 | 16.11° C | 97% | 914.2 hPa | 0 mm | 2.68 m/s, 57° | - | - |
| 1777995163 | 16.11° C | 97% | 914.3 hPa | 0 mm | 2.68 m/s, 71° | - | - |
| 1777994985 | 16.11° C | 97% | 914.2 hPa | 0 mm | 3.13 m/s, 80° | - | - |
| 1777994864 | 16.11° C | 97% | 914.3 hPa | 0 mm | 3.58 m/s, 84° | - | - |
| 1777994625 | 16.11° C | 97% | 914.3 hPa | 0 mm | 3.13 m/s, 79° | - | - |
| 1777994563 | 16.11° C | 97% | 914.4 hPa | 0 mm | 3.13 m/s, 73° | - | - |
| 1777994265 | 16.11° C | 97% | 914.5 hPa | 0 mm | 0 m/s | - | - |
| 1777994263 | 16.11° C | 97% | 914.5 hPa | 0 mm | 0 m/s | - | - |
| 1777993964 | 15.56° C | 97% | 914.5 hPa | 0 mm | 0.45 m/s, 60° | - | - |
| 1777993905 | 16.11° C | 97% | 914.5 hPa | 0 mm | 2.68 m/s, 57° | - | - |
| 1777993663 | 16.11° C | 97% | 914.5 hPa | 0 mm | 2.68 m/s, 63° | - | - |
| 1777993545 | 15.56° C | 97% | 914.5 hPa | 0 mm | 0 m/s | - | - |
| 1777993364 | 15.56° C | 97% | 914.5 hPa | 0 mm | 0.89 m/s, 67° | - | - |
| 1777993185 | 15.56° C | 97% | 914.4 hPa | 0 mm | 4.02 m/s, 74° | - | - |
| 1777993063 | 15.56° C | 98% | 914.5 hPa | 0 mm | 2.68 m/s, 67° | - | - |
| 1777992827 | 15.56° C | 97% | 914.6 hPa | 0 mm | 0 m/s | - | - |
| 1777992763 | 15.56° C | 97% | 914.6 hPa | 0 mm | 2.24 m/s, 71° | - | - |
* Rain latest hour (hover to see other rain measurements)
** Current wind speed in m/s (hover to see current wind gust speed)